FW2593 Weather Reports


Display with metric or nautical units.
time (UTC)temp
F
wind
direction
speed
MPH
gust
MPH
rain 1hr
in
rain 24hr
in
rain mn
in
humidity
%
barometer
mb
20191016124025 76 321 10.0 19.0 0.00 0.15 0.13 56 1019.1
20191016123524 76 324 12.0 19.0 0.00 0.15 0.13 53 1019.0
20191016123038 75 5 11.0 16.0 0.00 0.15 0.13 55 1019.1
20191016122516 75 355 10.0 16.0 0.00 0.15 0.13 56 1019.0
20191016122022 76 336 10.0 16.0 0.00 0.15 0.13 57 1019.0
20191016121537 76 332 8.0 18.0 0.00 0.15 0.13 57 1019.1
20191016121015 75 324 11.0 19.0 0.00 0.15 0.13 58 1019.1
20191016120517 76 338 8.0 16.0 0.00 0.15 0.13 60 1019.0
20191016120029 75 341 10.0 17.0 0.00 0.15 0.13 59 1019.1
20191016115520 76 333 9.0 15.0 0.00 0.15 0.13 62 1019.0
20191016115023 75 355 6.0 15.0 0.00 0.15 0.13 60 1019.1
20191016114539 75 305 6.0 17.0 0.00 0.15 0.13 61 1019.1
20191016114013 76 322 8.0 17.0 0.00 0.15 0.13 60 1019.3
20191016113523 75 333 11.0 17.0 0.00 0.15 0.13 60 1019.3
20191016113020 75 331 10.0 18.0 0.00 0.15 0.13 60 1019.4
20191016112513 75 329 13.0 18.0 0.00 0.15 0.13 59 1019.5
20191016112012 76 336 7.0 19.0 0.00 0.15 0.13 60 1019.5
20191016111531 75 320 13.0 19.0 0.00 0.15 0.13 59 1019.7
20191016111023 75 307 11.0 18.0 0.00 0.15 0.13 59 1019.7
20191016110520 75 332 10.0 18.0 0.00 0.15 0.13 59 1019.7
20191016110019 75 312 10.0 19.0 0.00 0.15 0.13 60 1019.8
20191016105522 75 333 11.0 20.0 0.00 0.15 0.13 60 1019.8
20191016105011 74 360 13.0 20.0 0.00 0.15 0.13 61 1019.8
20191016104535 75 341 10.0 19.0 0.00 0.15 0.13 61 1019.8
20191016104011 75 331 9.0 17.0 0.00 0.15 0.13 61 1019.9
20191016103521 75 334 10.0 18.0 0.00 0.15 0.13 60 1019.9
20191016103013 75 342 10.0 17.0 0.00 0.15 0.13 60 1019.9
20191016102518 75 319 11.0 17.0 0.01 0.15 0.13 60 1019.9
20191016102019 75 325 9.0 19.0 0.01 0.15 0.13 61 1019.9
20191016101601 75 315 10.0 19.0 0.01 0.15 0.13 58 1020.0
20191016101022 75 300 11.0 19.0 0.01 0.15 0.13 60 1020.1
20191016100520 75 296 11.0 19.0 0.01 0.15 0.13 60 1020.1
20191016100032 75 328 10.0 16.0 0.01 0.15 0.13 60 1020.1
20191016095517 76 342 8.0 16.0 0.01 0.15 0.13 60 1020.2
20191016095008 76 5 9.0 16.0 0.01 0.15 0.13 60 1020.2
20191016094523 76 308 9.0 16.0 0.01 0.15 0.13 58 1020.2
20191016094017 76 329 8.0 17.0 0.01 0.15 0.13 60 1020.4
20191016093508 75 325 11.0 15.0 0.01 0.15 0.13 59 1020.4
20191016093104 75 317 8.0 14.0 0.01 0.15 0.13 61 1020.3
20191016092510 74 309 10.0 13.0 0.00 0.14 0.13 61 1020.4
20191016092007 75 309 9.0 13.0 0.00 0.14 0.13 61 1020.4
20191016091512 76 336 7.0 11.0 0.00 0.14 0.13 61 1020.3
20191016091005 76 319 6.0 14.0 0.00 0.14 0.13 63 1020.2
20191016090504 76 315 7.0 14.0 0.00 0.14 0.13 63 1020.2
20191016090006 75 292 7.0 14.0 0.00 0.14 0.13 63 1020.4
20191016085507 75 309 7.0 14.0 0.00 0.14 0.13 64 1020.4
20191016085003 75 301 9.0 14.0 0.00 0.14 0.13 63 1020.4
20191016084510 74 286 9.0 14.0 0.00 0.14 0.13 62 1020.4
20191016084002 75 309 8.0 13.0 0.00 0.14 0.13 61 1020.3
20191016083503 74 315 8.0 15.0 0.00 0.14 0.13 62 1020.4
20191016083000 74 316 9.0 15.0 0.00 0.14 0.13 62 1020.4
20191016082500 74 292 9.0 14.0 0.00 0.14 0.13 62 1020.4
20191016082100 74 314 6.0 13.0 0.00 0.14 0.13 63 1020.3
20191016081819 73 302 8.0 13.0 0.00 0.14 0.13 63 1020.4
20191016081057 73 317 6.0 13.0 0.00 0.14 0.13 64 1020.5
20191016080556 72 304 5.0 13.0 0.00 0.14 0.13 64 1020.5
20191016080147 72 288 6.0 11.0 0.00 0.14 0.13 64 1020.5
20191016075555 72 296 5.0 13.0 0.00 0.14 0.13 66 1020.5
20191016075107 72 258 5.0 13.0 0.00 0.14 0.13 65 1020.6
20191016074639 72 284 2.0 12.0 0.00 0.14 0.13 65 1020.6
20191016074056 72 281 5.0 11.0 0.00 0.14 0.13 65 1020.7
20191016073558 72 186 4.0 14.0 0.00 0.14 0.13 65 1020.7
20191016073140 72 192 4.0 14.0 0.00 0.14 0.13 65 1020.6
20191016072603 71 158 1.0 10.0 0.00 0.14 0.13 64 1020.6
20191016072055 71 283 6.0 10.0 0.00 0.14 0.13 64 1020.5
20191016071639 71 291 3.0 10.0 0.00 0.14 0.13 64 1020.5
20191016071052 71 296 3.0 10.0 0.00 0.14 0.13 64 1020.5
20191016070551 71 285 5.0 10.0 0.00 0.14 0.13 64 1020.4
20191016070241 71 217 5.0 10.0 0.00 0.14 0.13 64 1020.4
20191016065603 71 140 3.0 9.0 0.00 0.14 0.13 65 1020.4
20191016065054 71 230 3.0 11.0 0.00 0.14 0.13 64 1020.3
20191016064642 72 188 5.0 11.0 0.00 0.14 0.13 64 1020.2
20191016064055 72 254 3.0 10.0 0.00 0.14 0.13 64 1020.1
20191016063547 71 207 4.0 12.0 0.00 0.14 0.13 65 1020.1
20191016063154 71 257 7.0 12.0 0.00 0.14 0.13 65 1020.0
20191016062546 71 207 1.0 11.0 0.00 0.14 0.13 66 1020.0
20191016062053 71 210 4.0 11.0 0.00 0.14 0.13 66 1020.0
20191016061606 71 215 3.0 8.0 0.00 0.14 0.13 67 1019.9
20191016061108 70 251 1.0 9.0 0.00 0.14 0.13 67 1019.9
20191016060541 70 203 1.0 9.0 0.00 0.14 0.13 67 1019.9
20191016060114 70 244 3.0 9.0 0.00 0.14 0.13 67 1019.8
20191016055540 70 229 4.0 9.0 0.00 0.14 0.13 68 1019.7
20191016055039 70 247 3.0 10.0 0.00 0.14 0.13 68 1019.6
20191016054638 70 204 2.0 9.0 0.00 0.14 0.13 68 1019.6
20191016054038 70 205 2.0 9.0 0.00 0.14 0.13 69 1019.6
20191016053544 70 242 3.0 11.0 0.00 0.14 0.13 69 1019.6
20191016053130 70 245 4.0 11.0 0.00 0.14 0.13 69 1019.5
20191016052544 70 212 3.0 10.0 0.00 0.14 0.13 69 1019.5
20191016052039 70 269 1.0 10.0 0.00 0.14 0.13 69 1019.4
20191016051619 70 282 2.0 6.0 0.00 0.14 0.13 69 1019.4
20191016051037 70 281 0.0 7.0 0.00 0.14 0.13 69 1019.4
20191016050538 70 229 2.0 7.0 0.00 0.14 0.13 69 1019.3
20191016050124 70 242 0.0 7.0 0.00 0.14 0.13 69 1019.4
20191016045537 70 282 2.0 8.0 0.00 0.14 0.13 69 1019.4
20191016045042 70 260 3.0 8.0 0.00 0.14 0.13 69 1019.4
20191016044558 70 251 2.0 7.0 0.00 0.14 0.13 69 1019.2
20191016044039 70 258 1.0 6.0 0.00 0.14 0.13 69 1019.2
20191016043534 69 269 1.0 5.0 0.00 0.14 0.13 69 1019.2
20191016043119 70 274 2.0 5.0 0.00 0.14 0.13 69 1019.3
20191016042556 70 274 1.0 7.0 0.00 0.14 0.13 69 1019.3
20191016042033 70 298 2.0 8.0 0.00 0.14 0.13 69 1019.2
20191016041551 70 269 3.0 8.0 0.00 0.14 0.13 69 1019.3
20191016041035 70 213 2.0 7.0 0.00 0.14 0.13 68 1019.2
20191016040532 69 246 1.0 5.0 0.00 0.14 0.13 68 1019.2
20191016040133 69 248 1.0 5.0 0.00 0.14 0.13 67 1019.2
20191016035544 69 246 1.0 7.0 0.00 0.14 0.13 66 1019.2
20191016035031 69 257 1.0 7.0 0.00 0.14 0.13 66 1019.1
20191016034559 69 288 2.0 9.0 0.00 0.14 0.13 66 1019.0
20191016034029 69 222 2.0 9.0 0.00 0.14 0.13 66 1018.9
20191016033529 69 292 2.0 8.0 0.00 0.14 0.13 66 1019.0
20191016033102 69 301 2.0 8.0 0.00 0.14 0.13 67 1018.9
20191016032545 68 304 3.0 8.0 0.00 0.14 0.13 68 1018.8
20191016032028 68 273 2.0 5.0 0.00 0.14 0.13 68 1018.8
20191016031547 68 281 2.0 5.0 0.00 0.14 0.13 68 1018.8
20191016031026 68 290 2.0 7.0 0.00 0.14 0.13 69 1018.7
20191016030534 68 236 2.0 7.0 0.00 0.14 0.13 69 1018.6
20191016030043 68 236 0.0 6.0 0.00 0.14 0.13 69 1018.6
20191016025526 68 269 2.0 6.0 0.00 0.14 0.13 69 1018.6
20191016025035 69 213 0.0 4.0 0.00 0.14 0.13 69 1018.5
20191016024616 68 231 1.0 4.0 0.00 0.14 0.13 69 1018.5
20191016024035 68 260 0.0 3.0 0.00 0.14 0.13 68 1018.5
20191016023525 68 219 0.0 4.0 0.00 0.14 0.13 68 1018.5
20191016023102 68 235 1.0 3.0 0.00 0.14 0.13 67 1018.5
20191016022528 68 214 0.0 3.0 0.00 0.14 0.13 67 1018.5
20191016022031 68 188 0.0 3.0 0.00 0.14 0.13 66 1018.5
20191016021531 68 244 0.0 4.0 0.00 0.14 0.13 65 1018.6
20191016021022 68 242 1.0 4.0 0.00 0.14 0.13 65 1018.7
20191016020524 68 238 1.0 3.0 0.00 0.14 0.13 64 1018.7
20191016020121 68 240 1.0 3.0 0.00 0.14 0.13 63 1018.7
20191016015521 68 244 0.0 3.0 0.00 0.14 0.13 63 1018.6
20191016015032 67 257 2.0 3.0 0.00 0.14 0.13 63 1018.6
20191016014531 67 281 0.0 2.0 0.00 0.14 0.13 65 1018.6
20191016014020 66 281 0.0 2.0 0.00 0.14 0.13 66 1018.6
20191016013520 67 281 1.0 2.0 0.00 0.14 0.13 66 1018.7
20191016013058 66 307 0.0 2.0 0.00 0.14 0.13 67 1018.7
20191016012521 67 308 0.0 3.0 0.00 0.14 0.13 66 1018.8
20191016012018 67 308 0.0 3.0 0.01 0.14 0.13 66 1018.8
20191016011542 67 307 0.0 3.0 0.01 0.14 0.13 66 1019.0
20191016011027 67 307 0.0 3.0 0.02 0.14 0.13 65 1018.9
20191016010517 67 303 0.0 7.0 0.02 0.14 0.13 65 1019.0
20191016010053 67 306 2.0 8.0 0.02 0.14 0.13 66 1018.8
20191016005517 66 288 3.0 8.0 0.03 0.14 0.13 66 1018.8
20191016005025 66 230 0.0 2.0 0.04 0.14 0.13 67 1018.7
20191016004546 67 235 0.0 2.0 0.05 0.14 0.13 68 1018.8
20191016004023 66 235 0.0 2.0 0.06 0.14 0.13 68 1018.8
20191016003515 66 281 0.0 0.0 0.06 0.14 0.13 68 1018.8
20191016003041 66 281 0.0 1.0 0.06 0.14 0.13 69 1018.9
20191016002522 65 281 0.0 4.0 0.07 0.14 0.13 69 1018.9
20191016002014 65 281 2.0 4.0 0.07 0.13 0.12 69 1019.0
20191016001553 66 245 1.0 2.0 0.08 0.13 0.11 69 1019.0
20191016001020 66 244 0.0 0.0 0.08 0.13 0.11 69 1019.0
20191016000524 66 244 0.0 0.0 0.08 0.12 0.10 69 1018.9
20191016000014 66 244 0.0 1.0 0.09 0.12 0.10 68 1019.0
20191015235516 66 244 0.0 3.0 0.08 0.11 0.09 68 1019.1
20191015235016 66 244 0.0 3.0 0.07 0.10 0.09 68 1019.3
20191015234513 66 220 1.0 3.0 0.06 0.09 0.08 68 1019.4
20191015234009 66 218 0.0 3.0 0.06 0.09 0.07 67 1019.4
20191015233508 66 214 0.0 3.0 0.05 0.08 0.06 67 1019.3
20191015233017 66 189 0.0 2.0 0.05 0.07 0.06 67 1019.3
20191015232512 66 188 0.0 2.0 0.06 0.07 0.06 67 1019.4
20191015232007 67 184 0.0 3.0 0.05 0.06 0.05 67 1019.5
20191015231513 67 182 0.0 4.0 0.03 0.05 0.03 67 1019.5
20191015231010 67 204 0.0 2.0 0.02 0.04 0.02 67 1019.6
20191015230508 66 190 0.0 2.0 0.02 0.03 0.02 66 1019.5
20191015230023 67 190 0.0 3.0 0.02 0.03 0.02 66 1019.3
20191015225505 67 169 1.0 3.0 0.02 0.03 0.02 65 1019.3
20191015225004 67 215 0.0 4.0 0.02 0.03 0.02 64 1019.3
20191015224505 67 148 0.0 4.0 0.03 0.03 0.02 63 1019.4
20191015224003 67 147 2.0 7.0 0.03 0.03 0.02 63 1019.6
20191015223506 67 161 3.0 8.0 0.03 0.03 0.02 62 1019.6
20191015223021 67 240 5.0 8.0 0.02 0.02 0.01 62 1019.5
20191015222502 66 250 4.0 11.0 0.02 0.02 0.00 62 1019.4
20191015222002 66 270 4.0 11.0 0.02 0.02 0.00 62 1019.3
20191015221505 67 278 5.0 12.0 0.02 0.02 0.00 62 1019.3
20191015221104 67 246 6.0 12.0 0.02 0.02 0.00 63 1019.4
20191015220636 68 259 5.0 8.0 0.02 0.02 0.00 64 1019.4
20191015220506 68 232 0.0 8.0 0.02 0.02 0.00 63 1019.3
20191015215556 68 290 2.0 17.0 0.01 0.01 0.01 61 1019.1
20191015215115 68 294 4.0 17.0 0.01 0.01 0.01 60 1019.5
20191015214707 69 271 6.0 11.0 0.00 0.00 0.00 59 1019.6
20191015214055 69 297 6.0 15.0 0.00 0.00 0.00 57 1019.2
20191015213600 68 329 5.0 15.0 0.00 0.00 0.00 57 1019.0
20191015213251 68 317 2.0 6.0 0.00 0.00 0.00 62 1019.2
20191015212625 68 355 2.0 12.0 0.00 0.00 0.00 62 1019.2
20191015212054 68 15 3.0 12.0 0.00 0.00 0.00 62 1019.5
20191015211638 68 350 2.0 9.0 0.00 0.00 0.00 62 1019.6
20191015211104 68 36 4.0 11.0 0.00 0.00 0.00 61 1019.9
20191015210551 68 355 4.0 19.0 0.00 0.00 0.00 59 1019.7
20191015210218 69 328 9.0 20.0 0.00 0.00 0.00 59 1019.9
20191015205604 72 51 5.0 20.0 0.00 0.00 0.00 69 1019.7
20191015205050 73 178 0.0 0.0 0.00 0.00 0.00 69 1019.4
20191015204653 73 178 0.0 0.0 0.00 0.00 0.00 69 1019.5
20191015204050 73 178 0.0 2.0 0.00 0.00 0.00 69 1019.3
20191015203553 73 178 0.0 2.0 0.00 0.00 0.00 69 1019.1
20191015203209 73 178 0.0 2.0 0.00 0.00 0.00 69 1019.1
20191015202549 73 178 0.0 3.0 0.00 0.00 0.00 69 1019.2
20191015202058 73 171 1.0 3.0 0.00 0.00 0.00 68 1019.1
20191015201645 73 173 1.0 4.0 0.00 0.00 0.00 68 1019.0
20191015201048 73 180 1.0 4.0 0.00 0.00 0.00 68 1019.1
20191015200604 73 179 0.0 3.0 0.00 0.00 0.00 68 1019.1
20191015200212 73 173 2.0 4.0 0.00 0.00 0.00 68 1019.1
20191015195559 73 169 1.0 3.0 0.00 0.00 0.00 68 1019.1
20191015195055 73 169 1.0 4.0 0.00 0.00 0.00 68 1019.1
20191015194048 73 182 0.0 3.0 0.00 0.00 0.00 68 1019.0
20191015193556 73 182 1.0 4.0 0.00 0.00 0.00 68 1018.9
20191015193203 73 185 1.0 5.0 0.00 0.00 0.00 68 1018.8
20191015192554 73 184 2.0 6.0 0.00 0.00 0.00 68 1018.7
20191015192047 73 175 2.0 6.0 0.00 0.00 0.00 69 1018.6
20191015191636 73 169 2.0 5.0 0.00 0.00 0.00 69 1018.5
20191015191046 73 182 1.0 6.0 0.00 0.00 0.00 69 1018.5
20191015190555 73 183 1.0 6.0 0.00 0.00 0.00 69 1018.4
20191015190149 73 167 2.0 6.0 0.00 0.00 0.00 69 1018.3
20191015185550 73 185 1.0 6.0 0.00 0.00 0.00 69 1018.3
20191015185057 73 160 3.0 6.0 0.00 0.00 0.00 69 1018.3
20191015184626 73 169 1.0 5.0 0.00 0.00 0.00 69 1018.2
20191015184046 73 178 2.0 6.0 0.00 0.00 0.00 69 1018.3
20191015183545 73 161 3.0 7.0 0.00 0.00 0.00 69 1018.3
20191015183149 73 197 2.0 7.0 0.00 0.00 0.00 69 1018.2
20191015182545 73 164 2.0 6.0 0.00 0.00 0.00 69 1018.2
20191015182052 73 172 2.0 8.0 0.00 0.00 0.00 69 1018.3
20191015181638 73 184 3.0 8.0 0.00 0.00 0.00 68 1018.2
20191015181056 73 163 2.0 5.0 0.00 0.00 0.00 68 1018.3
20191015180544 73 165 2.0 7.0 0.00 0.00 0.00 68 1018.3
20191015180057 73 170 2.0 7.0 0.00 0.00 0.00 68 1018.5
20191015175548 73 164 3.0 7.0 0.00 0.00 0.00 68 1018.5
20191015175044 73 170 3.0 7.0 0.00 0.00 0.00 68 1018.4
20191015174648 73 185 3.0 7.0 0.00 0.00 0.00 68 1018.5
20191015174057 73 186 3.0 7.0 0.00 0.00 0.00 68 1018.4
20191015173543 73 175 2.0 6.0 0.00 0.00 0.00 68 1018.4
20191015173156 73 169 3.0 6.0 0.00 0.00 0.00 68 1018.3
20191015172551 73 186 2.0 8.0 0.00 0.00 0.00 68 1018.3
20191015171638 73 180 1.0 7.0 0.00 0.00 0.00 68 1018.2
20191015171042 73 180 3.0 7.0 0.00 0.00 0.00 68 1018.2
20191015170541 73 177 3.0 5.0 0.00 0.00 0.00 68 1018.1
20191015170131 73 183 1.0 6.0 0.00 0.00 0.00 68 1018.0
20191015165541 73 171 2.0 6.0 0.00 0.00 0.00 68 1018.0
20191015165054 73 192 2.0 5.0 0.00 0.00 0.00 68 1018.0
20191015164631 73 164 2.0 6.0 0.00 0.00 0.00 68 1017.9
20191015164047 73 157 2.0 6.0 0.00 0.00 0.00 68 1017.7
20191015163549 73 195 3.0 5.0 0.00 0.00 0.00 68 1017.7
20191015163113 73 183 2.0 6.0 0.00 0.00 0.00 68 1017.7
20191015162540 73 182 3.0 5.0 0.00 0.00 0.00 67 1017.6
20191015162040 73 165 1.0 5.0 0.00 0.00 0.00 67 1017.6
20191015161627 73 175 2.0 5.0 0.00 0.00 0.00 67 1017.6
20191015161039 73 163 2.0 5.0 0.00 0.00 0.00 67 1017.6
20191015160540 74 159 2.0 6.0 0.00 0.00 0.00 67 1017.5
20191015160203 74 173 2.0 6.0 0.00 0.00 0.00 66 1017.6
20191015155539 74 167 2.0 5.0 0.00 0.00 0.00 66 1017.7
20191015155039 74 176 2.0 7.0 0.00 0.00 0.00 66 1017.7
20191015154556 74 165 2.0 7.0 0.00 0.00 0.00 65 1017.6
20191015154038 74 180 2.0 6.0 0.00 0.00 0.00 65 1017.7
20191015153538 75 178 2.0 5.0 0.00 0.00 0.00 65 1017.8
20191015153148 75 166 3.0 8.0 0.00 0.00 0.00 65 1017.7
20191015152545 75 171 4.0 8.0 0.00 0.00 0.00 64 1017.7
20191015152038 75 165 3.0 8.0 0.00 0.00 0.00 64 1017.7
20191015151552 75 156 3.0 9.0 0.00 0.00 0.00 64 1017.6
20191015151037 75 174 4.0 9.0 0.00 0.00 0.00 64 1017.6
20191015150554 75 181 2.0 8.0 0.00 0.00 0.00 64 1017.6
20191015150135 75 143 3.0 8.0 0.00 0.00 0.00 63 1017.6
20191015145536 75 149 5.0 8.0 0.00 0.00 0.00 63 1017.6
20191015145044 75 177 4.0 8.0 0.00 0.00 0.00 63 1017.6
20191015144604 76 191 5.0 7.0 0.00 0.00 0.00 63 1017.6
20191015144038 76 165 3.0 7.0 0.00 0.00 0.00 62 1017.6
20191015143540 76 170 3.0 10.0 0.00 0.00 0.00 62 1017.6
20191015143101 76 142 4.0 10.0 0.00 0.00 0.00 62 1017.5
20191015142534 76 202 3.0 8.0 0.00 0.00 0.00 63 1017.4
20191015142033 76 164 3.0 8.0 0.00 0.00 0.00 63 1017.4
20191015141615 76 145 3.0 8.0 0.00 0.00 0.00 63 1017.4
20191015141048 75 207 4.0 8.0 0.00 0.00 0.00 63 1017.4
20191015140107 75 168 4.0 8.0 0.00 0.00 0.00 63 1017.5
20191015135531 75 156 4.0 9.0 0.00 0.00 0.00 62 1017.4
20191015135034 75 166 2.0 9.0 0.00 0.00 0.00 63 1017.5
20191015134533 75 178 3.0 9.0 0.00 0.00 0.00 62 1017.5
20191015134034 76 165 4.0 9.0 0.00 0.00 0.00 62 1017.6
20191015133541 76 161 4.0 7.0 0.00 0.00 0.00 62 1017.5
20191015133050 76 190 4.0 10.0 0.00 0.00 0.00 62 1017.7
20191015132528 76 171 4.0 10.0 0.00 0.00 0.00 62 1017.8
20191015132039 76 175 3.0 8.0 0.00 0.00 0.00 62 1017.8
20191015131549 76 158 4.0 9.0 0.00 0.00 0.00 62 1017.9
20191015131026 76 190 5.0 9.0 0.00 0.00 0.00 61 1018.0
20191015130534 77 180 3.0 9.0 0.00 0.00 0.00 60 1018.0
20191015130101 77 165 4.0 9.0 0.00 0.00 0.00 60 1018.1
20191015125536 77 168 5.0 12.0 0.00 0.00 0.00 60 1018.1
20191015125032 77 165 5.0 12.0 0.00 0.00 0.00 59 1018.1
20191015124542 77 195 4.0 11.0 0.00 0.00 0.00 60 1018.2